KLM45C EGLL-EHAM

Flight info

Callsign KLM45C
Flight time 0h 40m
Altitude 29000
Route BPK Q295 BRAIN M197 REDFA
Aircraft B738/M-SDE2E3FGHIRWXY/LB1

Departure

Time 2026-05-06 15:00
Airport London Heathrow Airport (EGLL)

Arrival

Time 2026-05-06 15:41
Airport Amsterdam Airport Schiphol (EHAM)
Time Latitude Longitude Altitude Speed Heading
2026-05-06 14:25 51.46996 -0.44681 90 ft 0 kts 269°
2026-05-06 14:46 51.46996 -0.44661 86 ft 4 kts 269°
2026-05-06 14:46 51.46996 -0.44617 86 ft 4 kts 269°
2026-05-06 14:46 51.46998 -0.44581 86 ft 4 kts 243°
2026-05-06 14:46 51.47015 -0.44559 87 ft 4 kts 185°
2026-05-06 14:47 51.47031 -0.44558 86 ft 1 kts 180°
2026-05-06 14:47 51.47033 -0.44558 86 ft 0 kts 180°
2026-05-06 14:50 51.46914 -0.44557 86 ft 28 kts 180°
2026-05-06 14:50 51.46819 -0.44556 86 ft 15 kts 180°
2026-05-06 14:50 51.46756 -0.44556 86 ft 9 kts 180°
2026-05-06 14:51 51.46697 -0.44557 89 ft 8 kts 188°
2026-05-06 14:51 51.46665 -0.44631 87 ft 8 kts 256°
2026-05-06 14:51 51.46662 -0.44741 86 ft 16 kts 271°
2026-05-06 14:51 51.46665 -0.44935 86 ft 18 kts 271°
2026-05-06 14:52 51.46663 -0.45128 86 ft 17 kts 269°
2026-05-06 14:52 51.46661 -0.45315 86 ft 16 kts 269°
2026-05-06 14:52 51.46660 -0.45494 87 ft 16 kts 270°
2026-05-06 14:52 51.46661 -0.45666 87 ft 15 kts 270°
2026-05-06 14:53 51.46661 -0.45908 86 ft 26 kts 269°
2026-05-06 14:53 51.46660 -0.46190 88 ft 25 kts 270°
2026-05-06 14:53 51.46661 -0.46454 86 ft 23 kts 270°
2026-05-06 14:53 51.46658 -0.46707 89 ft 22 kts 269°
2026-05-06 14:54 51.46657 -0.46952 89 ft 22 kts 270°
2026-05-06 14:54 51.46656 -0.47190 87 ft 21 kts 270°
2026-05-06 14:54 51.46655 -0.47421 87 ft 20 kts 270°
2026-05-06 14:54 51.46655 -0.47646 87 ft 20 kts 270°
2026-05-06 14:55 51.46656 -0.47863 88 ft 19 kts 270°
2026-05-06 14:55 51.46656 -0.48073 86 ft 19 kts 269°
2026-05-06 14:55 51.46623 -0.48207 90 ft 7 kts 204°
2026-05-06 14:55 51.46598 -0.48212 88 ft 0 kts 182°
2026-05-06 14:59 51.46520 -0.48212 87 ft 20 kts 170°
2026-05-06 15:00 51.46479 -0.48013 86 ft 27 kts 89°
2026-05-06 15:00 51.46483 -0.47260 86 ft 115 kts 89°
2026-05-06 15:00 51.46492 -0.45531 197 ft 187 kts 86°
2026-05-06 15:00 51.46465 -0.43208 739 ft 230 kts 90°
2026-05-06 15:01 51.46583 -0.40659 1940 ft 226 kts 64°
2026-05-06 15:01 51.47515 -0.38681 3131 ft 230 kts 46°
2026-05-06 15:01 51.48607 -0.36662 3935 ft 243 kts 47°
2026-05-06 15:01 51.49717 -0.34563 4844 ft 250 kts 48°
2026-05-06 15:02 51.50859 -0.32409 5644 ft 256 kts 47°
2026-05-06 15:02 51.52005 -0.30222 5954 ft 258 kts 52°
2026-05-06 15:02 51.52813 -0.27621 6014 ft 264 kts 69°
2026-05-06 15:02 51.53409 -0.24787 6017 ft 270 kts 69°
2026-05-06 15:03 51.54018 -0.21963 5999 ft 271 kts 69°
2026-05-06 15:03 51.54857 -0.19302 6007 ft 266 kts 46°
2026-05-06 15:03 51.56359 -0.17635 5995 ft 265 kts 18°
2026-05-06 15:03 51.58162 -0.17195 6048 ft 265 kts 356°
2026-05-06 15:04 51.59934 -0.17989 6200 ft 263 kts 343°
2026-05-06 15:04 51.61716 -0.18045 6827 ft 264 kts 19°
2026-05-06 15:04 51.63211 -0.16351 7720 ft 271 kts 52°
2026-05-06 15:04 51.64029 -0.13572 8548 ft 279 kts 64°
2026-05-06 15:05 51.64904 -0.10756 9404 ft 284 kts 58°
2026-05-06 15:05 51.65904 -0.07970 10228 ft 290 kts 56°
2026-05-06 15:05 51.67004 -0.05132 10621 ft 311 kts 55°
2026-05-06 15:05 51.68243 -0.02089 10821 ft 337 kts 54°
2026-05-06 15:06 51.69591 0.01131 11238 ft 353 kts 54°
2026-05-06 15:06 51.70992 0.04438 11921 ft 360 kts 53°
2026-05-06 15:06 51.72418 0.07782 12692 ft 364 kts 53°
2026-05-06 15:06 51.73865 0.11172 13441 ft 370 kts 53°
2026-05-06 15:07 51.75334 0.14610 14143 ft 375 kts 53°
2026-05-06 15:07 51.76690 0.18229 14845 ft 380 kts 63°
2026-05-06 15:07 51.77634 0.22248 15516 ft 386 kts 73°
2026-05-06 15:07 51.78134 0.26539 16213 ft 391 kts 82°
2026-05-06 15:08 51.78473 0.30915 16894 ft 396 kts 82°
2026-05-06 15:08 51.78795 0.35378 17572 ft 399 kts 83°
2026-05-06 15:08 51.79118 0.39790 18246 ft 404 kts 83°
2026-05-06 15:08 51.79465 0.44375 18826 ft 407 kts 82°
2026-05-06 15:09 51.79816 0.48876 19425 ft 411 kts 82°
2026-05-06 15:09 51.80179 0.53472 19979 ft 415 kts 82°
2026-05-06 15:09 51.80546 0.58112 20558 ft 418 kts 82°
2026-05-06 15:09 51.80913 0.62782 21141 ft 420 kts 83°
2026-05-06 15:10 51.81370 0.67527 21681 ft 424 kts 78°
2026-05-06 15:10 51.82067 0.72122 22213 ft 427 kts 75°
2026-05-06 15:10 51.82839 0.76779 22766 ft 430 kts 75°
2026-05-06 15:10 51.83594 0.81471 23319 ft 433 kts 75°
2026-05-06 15:11 51.84386 0.86182 23782 ft 436 kts 73°
2026-05-06 15:11 51.85243 0.90897 24209 ft 439 kts 73°
2026-05-06 15:11 51.86126 0.95635 24649 ft 441 kts 73°
2026-05-06 15:11 51.87014 1.00403 25081 ft 443 kts 73°
2026-05-06 15:12 51.87896 1.05185 25504 ft 445 kts 73°
2026-05-06 15:12 51.88778 1.10015 25904 ft 448 kts 73°
2026-05-06 15:12 51.89655 1.14864 26292 ft 451 kts 73°
2026-05-06 15:12 51.90533 1.19751 26687 ft 453 kts 73°
2026-05-06 15:13 51.91414 1.24672 27055 ft 456 kts 74°
2026-05-06 15:13 51.92295 1.29614 27452 ft 458 kts 74°
2026-05-06 15:13 51.93176 1.34563 27961 ft 457 kts 74°
2026-05-06 15:13 51.94052 1.39499 28546 ft 454 kts 74°
2026-05-06 15:14 51.94921 1.44409 28982 ft 455 kts 74°
2026-05-06 15:14 51.96670 1.54330 28963 ft 457 kts 74°
2026-05-06 15:15 51.98398 1.64172 28963 ft 452 kts 74°
2026-05-06 15:15 52.00063 1.74010 28958 ft 448 kts 76°
2026-05-06 15:16 52.01566 1.83718 28959 ft 442 kts 76°
2026-05-06 15:16 52.03053 1.93426 28970 ft 444 kts 76°
2026-05-06 15:16 52.03797 1.98251 28938 ft 433 kts 76°
2026-05-06 15:17 52.04515 2.02905 28948 ft 417 kts 77°
2026-05-06 15:17 52.05197 2.07329 28941 ft 402 kts 77°
2026-05-06 15:17 52.05863 2.11653 28928 ft 388 kts 77°
2026-05-06 15:17 52.06504 2.15831 28944 ft 374 kts 77°
2026-05-06 15:18 52.07123 2.19877 28936 ft 361 kts 77°
2026-05-06 15:18 52.07717 2.23769 28896 ft 349 kts 77°
2026-05-06 15:18 52.08299 2.27592 28345 ft 352 kts 77°
2026-05-06 15:18 52.08901 2.31573 27092 ft 375 kts 77°
2026-05-06 15:19 52.09547 2.35842 25734 ft 401 kts 77°
2026-05-06 15:19 52.10228 2.40346 24642 ft 418 kts 77°
2026-05-06 15:19 52.10923 2.44956 24023 ft 419 kts 76°
2026-05-06 15:19 52.11714 2.49490 23604 ft 415 kts 67°
2026-05-06 15:20 52.13061 2.53603 23136 ft 409 kts 59°
2026-05-06 15:20 52.14517 2.57538 22957 ft 402 kts 58°
2026-05-06 15:20 52.15977 2.61428 22961 ft 405 kts 58°
2026-05-06 15:20 52.17447 2.65367 22955 ft 409 kts 58°
2026-05-06 15:21 52.18915 2.69348 22954 ft 411 kts 59°
2026-05-06 15:21 52.20373 2.73348 22937 ft 409 kts 59°
2026-05-06 15:21 52.21813 2.77330 22942 ft 407 kts 59°
2026-05-06 15:21 52.23247 2.81317 22941 ft 407 kts 59°
2026-05-06 15:22 52.24674 2.85298 22944 ft 406 kts 59°
2026-05-06 15:22 52.26098 2.89279 22951 ft 407 kts 59°
2026-05-06 15:22 52.27523 2.93268 22950 ft 407 kts 59°
2026-05-06 15:22 52.28949 2.97266 22952 ft 408 kts 59°
2026-05-06 15:23 52.30377 3.01274 22949 ft 409 kts 59°
2026-05-06 15:23 52.31806 3.05293 22945 ft 409 kts 59°
2026-05-06 15:23 52.33236 3.09318 22945 ft 410 kts 59°
2026-05-06 15:23 52.34669 3.13360 22941 ft 411 kts 59°
2026-05-06 15:24 52.36092 3.17383 22892 ft 404 kts 59°
2026-05-06 15:24 52.37492 3.21344 22168 ft 402 kts 59°
2026-05-06 15:24 52.38884 3.25288 21375 ft 398 kts 59°
2026-05-06 15:24 52.40258 3.29189 20605 ft 394 kts 59°
2026-05-06 15:25 52.41619 3.33056 19852 ft 390 kts 59°
2026-05-06 15:25 52.42966 3.36892 19120 ft 386 kts 59°
2026-05-06 15:25 52.44301 3.40702 18186 ft 387 kts 60°
2026-05-06 15:25 52.45330 3.44834 16816 ft 397 kts 75°
2026-05-06 15:26 52.45974 3.49261 15545 ft 402 kts 77°
2026-05-06 15:26 52.46571 3.53753 14321 ft 404 kts 77°
2026-05-06 15:26 52.47168 3.58262 13043 ft 404 kts 77°
2026-05-06 15:26 52.47777 3.62747 11745 ft 402 kts 76°
2026-05-06 15:27 52.48392 3.67184 10854 ft 391 kts 76°
2026-05-06 15:27 52.48983 3.71386 10626 ft 364 kts 76°
2026-05-06 15:27 52.49531 3.75267 10446 ft 340 kts 76°
2026-05-06 15:27 52.50049 3.78927 10322 ft 318 kts 76°
2026-05-06 15:28 52.50533 3.82353 10191 ft 299 kts 76°
2026-05-06 15:28 52.50992 3.85608 9902 ft 288 kts 75°
2026-05-06 15:28 52.51440 3.88792 9388 ft 285 kts 76°
2026-05-06 15:28 52.51895 3.92030 8326 ft 299 kts 76°
2026-05-06 15:29 52.52117 3.95458 7320 ft 308 kts 95°
2026-05-06 15:29 52.51472 3.98779 6367 ft 306 kts 118°
2026-05-06 15:29 52.50239 4.01522 5373 ft 299 kts 126°
2026-05-06 15:29 52.48927 4.04093 4360 ft 289 kts 127°
2026-05-06 15:30 52.47638 4.06574 3313 ft 282 kts 127°
2026-05-06 15:30 52.46379 4.08996 2440 ft 273 kts 126°
2026-05-06 15:30 52.45191 4.11277 2171 ft 245 kts 126°
2026-05-06 15:30 52.44484 4.12636 2062 ft 228 kts 125°
2026-05-06 15:31 52.43509 4.14521 1959 ft 204 kts 124°
2026-05-06 15:31 52.42645 4.16197 1973 ft 184 kts 123°
2026-05-06 15:31 52.41834 4.17787 1994 ft 181 kts 124°
2026-05-06 15:32 52.40208 4.20974 2005 ft 183 kts 123°
2026-05-06 15:32 52.39394 4.22570 2005 ft 183 kts 123°
2026-05-06 15:32 52.38579 4.24165 2002 ft 183 kts 123°
2026-05-06 15:32 52.37761 4.25766 2000 ft 183 kts 123°
2026-05-06 15:33 52.37597 4.26088 1998 ft 183 kts 124°
2026-05-06 15:33 52.36929 4.27391 1996 ft 183 kts 123°
2026-05-06 15:33 52.36109 4.28994 1987 ft 183 kts 124°
2026-05-06 15:33 52.35293 4.30586 1984 ft 182 kts 123°
2026-05-06 15:34 52.34480 4.32170 1987 ft 181 kts 123°
2026-05-06 15:34 52.33678 4.33732 1988 ft 181 kts 123°
2026-05-06 15:34 52.32868 4.35307 1992 ft 181 kts 124°
2026-05-06 15:34 52.32056 4.36889 1998 ft 182 kts 123°
2026-05-06 15:35 52.31239 4.38477 1999 ft 183 kts 123°
2026-05-06 15:35 52.30418 4.40076 2002 ft 185 kts 124°
2026-05-06 15:35 52.29585 4.41695 1999 ft 186 kts 124°
2026-05-06 15:35 52.28751 4.43314 1988 ft 186 kts 124°
2026-05-06 15:36 52.27918 4.44928 1987 ft 185 kts 123°
2026-05-06 15:36 52.27088 4.46539 2004 ft 187 kts 124°
2026-05-06 15:36 52.26251 4.48164 2012 ft 187 kts 124°
2026-05-06 15:36 52.25413 4.49781 1989 ft 184 kts 124°
2026-05-06 15:37 52.24588 4.51373 1997 ft 184 kts 125°
2026-05-06 15:37 52.23757 4.52978 1989 ft 185 kts 126°
2026-05-06 15:37 52.22965 4.54597 1966 ft 178 kts 112°
2026-05-06 15:37 52.22875 4.56458 2043 ft 169 kts 69°
2026-05-06 15:38 52.23296 4.58291 1986 ft 172 kts 63°
2026-05-06 15:38 52.23794 4.60034 1944 ft 169 kts 62°
2026-05-06 15:38 52.24351 4.61747 1746 ft 173 kts 58°
2026-05-06 15:38 52.24975 4.63425 1526 ft 172 kts 56°
2026-05-06 15:39 52.25592 4.65045 1309 ft 160 kts 56°
2026-05-06 15:39 52.26147 4.66494 1070 ft 142 kts 56°
2026-05-06 15:39 52.26630 4.67759 880 ft 123 kts 56°
2026-05-06 15:39 52.27072 4.68913 719 ft 121 kts 56°
2026-05-06 15:40 52.27516 4.70074 567 ft 120 kts 57°
2026-05-06 15:40 52.27961 4.71242 387 ft 121 kts 56°
2026-05-06 15:40 52.28410 4.72410 271 ft 121 kts 58°
2026-05-06 15:40 52.28866 4.73608 50 ft 127 kts 58°
2026-05-06 15:41 52.29315 4.74773 -4 ft 108 kts 58°
2026-05-06 15:41 52.29645 4.75642 -5 ft 63 kts 58°
2026-05-06 15:41 52.29821 4.76105 -7 ft 44 kts 58°
2026-05-06 15:41 52.29982 4.76478 -5 ft 37 kts 40°
2026-05-06 15:42 52.30188 4.76678 -1 ft 30 kts 27°
2026-05-06 15:42 52.30223 4.76707 -3 ft 2 kts 25°
2026-05-06 15:42 52.30255 4.76732 -3 ft 8 kts 25°
2026-05-06 15:42 52.30323 4.76784 -3 ft 10 kts 25°
2026-05-06 15:43 52.30352 4.76915 -3 ft 16 kts 72°
2026-05-06 15:43 52.30427 4.77028 -4 ft 15 kts
2026-05-06 15:43 52.30519 4.76953 -3 ft 15 kts 329°
2026-05-06 15:43 52.30598 4.76855 -3 ft 14 kts 304°
2026-05-06 15:44 52.30615 4.76748 -3 ft 0 kts 224°
2026-05-06 15:44 52.30596 4.76719 -3 ft 2 kts 215°
2026-05-06 15:44 52.30582 4.76703 -3 ft 3 kts 215°
2026-05-06 15:45 52.30573 4.76693 -3 ft 0 kts 215°